Total_Precipitation_Accumulation
0.53 0.53 0.56 0.56 0.49 0.46 0.58 0.70 1.08 1.43 1.81 2.14 2.21 2.22 2.26 2.45 2.37 2.08 1.93 1.77 1.64 1.63 1.69 1.68 1.63 1.62 1.65 1.82 1.91 2.13 2.26 2.26 2.22 2.17 2.13 2.11 2.04 1.88 1.70 1.58 1.52 1.62 1.60 1.58
0.58 0.47 0.56 0.57 0.56 0.60 0.70 0.83 1.10 1.45 1.96 2.21 2.21 2.20 2.23 2.33 2.30 2.08 1.78 1.66 1.63 1.58 1.67 1.62 1.55 1.48 1.45 1.61 1.67 1.83 1.97 1.98 1.93 1.92 2.02 1.99 1.91 1.78 1.67 1.57 1.51 1.51 1.50 1.43
0.87 0.56 0.78 1.07 0.84 0.88 0.99 1.03 1.24 1.68 1.90 1.99 2.11 2.12 2.17 2.27 2.32 2.19 1.92 1.81 1.83 1.87 1.89 1.72 1.59 1.52 1.55 1.60 1.65 1.72 1.80 1.76 1.78 1.80 1.80 1.79 1.63 1.55 1.58 1.62 1.52 1.43 1.35 1.25
0.92 1.06 1.61 1.40 0.81 0.88 1.08 1.11 1.14 1.28 1.41 1.59 1.79 1.90 2.05 2.20 2.32 2.30 2.18 2.14 2.15 2.11 1.97 1.78 1.66 1.64 1.65 1.61 1.65 1.73 1.71 1.64 1.60 1.62 1.58 1.57 1.57 1.54 1.53 1.53 1.48 1.40 1.28 1.17
1.23 1.55 1.71 1.42 0.88 0.85 1.24 1.49 1.19 1.18 1.20 1.22 1.27 1.49 1.94 2.03 2.08 2.20 2.16 2.12 2.04 1.98 1.87 1.74 1.61 1.57 1.56 1.57 1.54 1.54 1.46 1.42 1.36 1.39 1.46 1.48 1.46 1.54 1.52 1.43 1.38 1.30 1.21 1.18
1.44 1.85 2.11 1.80 0.89 0.69 1.18 1.98 1.41 1.22 1.28 1.30 1.45 1.76 1.81 1.65 1.63 1.72 1.72 1.73 1.79 1.81 1.74 1.61 1.49 1.41 1.43 1.48 1.46 1.39 1.35 1.35 1.25 1.25 1.32 1.38 1.41 1.45 1.38 1.33 1.30 1.18 1.13 1.16
1.46 1.89 2.05 1.24 0.76 0.93 1.97 2.37 1.64 1.35 1.38 1.51 1.65 1.64 1.34 1.22 1.26 1.33 1.47 1.47 1.48 1.65 1.71 1.53 1.32 1.27 1.37 1.39 1.37 1.23 1.21 1.28 1.28 1.26 1.27 1.29 1.32 1.35 1.31 1.27 1.29 1.28 1.24 1.25
1.54 2.04 2.20 1.15 0.95 1.49 1.88 1.49 1.38 1.38 1.34 1.35 1.25 1.09 1.02 1.04 1.07 1.08 1.24 1.36 1.34 1.47 1.46 1.30 1.20 1.24 1.33 1.33 1.22 1.16 1.23 1.35 1.33 1.31 1.20 1.19 1.35 1.38 1.32 1.29 1.25 1.31 1.31 1.30
1.73 2.01 1.67 1.10 1.10 1.18 1.18 1.21 1.13 1.11 1.02 0.96 0.98 0.95 0.92 0.98 1.03 1.05 1.13 1.23 1.21 1.28 1.29 1.20 1.16 1.23 1.31 1.28 1.19 1.25 1.34 1.39 1.41 1.32 1.29 1.27 1.34 1.37 1.31 1.29 1.20 1.18 1.18 1.20
1.39 1.40 1.11 0.99 0.95 0.94 0.93 1.02 0.99 0.93 0.94 0.81 0.83 0.89 0.92 0.96 1.08 1.15 1.18 1.16 1.16 1.24 1.22 1.16 1.10 1.10 1.15 1.08 1.09 1.27 1.43 1.41 1.40 1.39 1.37 1.32 1.28 1.22 1.20 1.18 1.12 1.08 1.06 1.06
1.38 1.18 0.98 0.86 0.78 0.80 0.87 0.87 0.86 0.90 0.94 0.86 0.82 0.91 0.92 0.91 0.99 1.06 1.11 1.11 1.14 1.24 1.25 1.11 1.02 1.00 1.00 1.05 1.14 1.31 1.36 1.33 1.31 1.33 1.31 1.29 1.18 1.09 1.09 1.02 0.91 0.86 0.83 0.81
1.37 1.11 1.16 1.04 0.79 0.73 0.89 0.99 0.93 0.92 0.96 0.85 0.83 0.90 0.96 0.99 0.97 1.00 1.07 1.09 1.14 1.13 1.09 1.01 0.91 0.89 0.94 0.99 1.05 1.20 1.21 1.18 1.17 1.22 1.22 1.16 1.11 1.02 0.93 0.83 0.81 0.74 0.69 0.71
0.98 0.87 0.87 0.82 0.82 0.91 1.02 1.01 0.92 0.93 0.88 0.80 0.87 0.91 0.97 1.01 0.93 0.91 0.97 1.01 1.10 1.04 0.96 0.93 0.89 0.90 0.92 0.87 0.89 1.00 1.09 1.09 1.00 0.97 1.04 1.04 1.00 1.00 1.02 0.86 0.75 0.69 0.64 0.67
0.74 0.83 0.95 0.95 1.05 1.10 1.06 0.95 0.87 0.83 0.79 0.73 0.75 0.82 0.85 0.87 0.80 0.81 0.91 0.92 0.92 0.92 0.90 0.91 0.91 0.90 0.83 0.80 0.88 0.95 0.96 0.92 0.88 0.90 0.88 0.85 0.86 0.84 0.85 0.93 0.94 0.86 0.74 0.70
0.73 0.81 0.90 0.86 0.90 0.97 0.91 0.82 0.77 0.76 0.73 0.76 0.71 0.75 0.77 0.77 0.74 0.72 0.79 0.78 0.78 0.82 0.84 0.82 0.80 0.83 0.80 0.79 0.84 0.86 0.81 0.78 0.76 0.74 0.76 0.78 0.80 0.79 0.77 0.79 0.85 0.88 0.87 0.79
0.65 0.61 0.64 0.68 0.72 0.79 0.81 0.77 0.73 0.75 0.71 0.75 0.77 0.75 0.72 0.68 0.64 0.60 0.65 0.68 0.85 0.92 0.82 0.75 0.73 0.75 0.74 0.75 0.79 0.77 0.72 0.66 0.62 0.62 0.64 0.68 0.72 0.75 0.78 0.76 0.74 0.81 0.83 0.77
0.70 0.71 0.69 0.62 0.60 0.62 0.64 0.62 0.62 0.68 0.68 0.69 0.71 0.65 0.60 0.59 0.62 0.63 0.67 0.73 0.79 0.82 0.76 0.71 0.65 0.57 0.57 0.65 0.70 0.64 0.56 0.54 0.51 0.49 0.54 0.57 0.58 0.64 0.72 0.70 0.73 0.76 0.72 0.68
0.66 0.65 0.61 0.58 0.54 0.49 0.49 0.50 0.54 0.61 0.64 0.63 0.60 0.58 0.57 0.58 0.63 0.65 0.66 0.70 0.72 0.72 0.67 0.61 0.57 0.51 0.46 0.50 0.58 0.55 0.51 0.51 0.45 0.44 0.45 0.50 0.53 0.55 0.56 0.59 0.62 0.62 0.62 0.61
0.51 0.47 0.45 0.48 0.46 0.39 0.40 0.43 0.52 0.57 0.59 0.59 0.61 0.64 0.64 0.61 0.63 0.62 0.65 0.72 0.75 0.77 0.70 0.58 0.58 0.52 0.46 0.46 0.50 0.48 0.48 0.50 0.49 0.47 0.47 0.50 0.52 0.55 0.52 0.49 0.52 0.56 0.58 0.56
0.43 0.39 0.39 0.39 0.36 0.34 0.37 0.39 0.45 0.50 0.53 0.53 0.57 0.65 0.70 0.68 0.62 0.64 0.70 0.78 0.81 0.73 0.63 0.58 0.53 0.52 0.49 0.45 0.44 0.44 0.45 0.49 0.49 0.44 0.45 0.49 0.52 0.50 0.47 0.45 0.50 0.56 0.59 0.60
0.42 0.41 0.40 0.38 0.37 0.37 0.41 0.45 0.47 0.45 0.45 0.49 0.55 0.60 0.66 0.69 0.64 0.68 0.75 0.82 0.75 0.63 0.55 0.56 0.53 0.51 0.49 0.47 0.44 0.43 0.43 0.44 0.43 0.41 0.42 0.46 0.47 0.43 0.43 0.45 0.46 0.53 0.60 0.64
0.39 0.41 0.45 0.43 0.41 0.44 0.46 0.46 0.46 0.44 0.40 0.40 0.42 0.45 0.54 0.61 0.59 0.62 0.68 0.75 0.70 0.59 0.52 0.51 0.48 0.48 0.49 0.47 0.43 0.42 0.45 0.47 0.45 0.46 0.48 0.43 0.43 0.43 0.44 0.46 0.48 0.49 0.54 0.63
0.45 0.48 0.49 0.46 0.45 0.42 0.40 0.43 0.47 0.47 0.43 0.39 0.37 0.42 0.50 0.53 0.52 0.56 0.57 0.53 0.51 0.53 0.49 0.49 0.51 0.50 0.45 0.41 0.44 0.49 0.50 0.49 0.48 0.48 0.47 0.47 0.46 0.47 0.50 0.49 0.49 0.51 0.57 0.65
0.53 0.56 0.50 0.45 0.44 0.47 0.47 0.45 0.45 0.44 0.42 0.39 0.39 0.42 0.46 0.46 0.45 0.44 0.47 0.49 0.50 0.49 0.45 0.50 0.52 0.47 0.43 0.38 0.43 0.49 0.52 0.49 0.47 0.48 0.48 0.49 0.47 0.48 0.53 0.57 0.58 0.58 0.59 0.57
0.58 0.62 0.56 0.52 0.56 0.61 0.55 0.47 0.43 0.42 0.39 0.39 0.39 0.39 0.39 0.40 0.40 0.43 0.46 0.46 0.52 0.50 0.44 0.47 0.46 0.43 0.39 0.40 0.45 0.47 0.50 0.50 0.52 0.51 0.50 0.55 0.53 0.50 0.51 0.55 0.58 0.56 0.51 0.51
0.66 0.65 0.59 0.57 0.57 0.59 0.57 0.55 0.51 0.47 0.45 0.46 0.43 0.37 0.35 0.37 0.39 0.44 0.48 0.49 0.53 0.52 0.47 0.48 0.48 0.47 0.45 0.45 0.46 0.47 0.50 0.51 0.52 0.53 0.51 0.56 0.60 0.58 0.55 0.57 0.60 0.56 0.52 0.51
0.69 0.63 0.61 0.55 0.50 0.48 0.54 0.59 0.56 0.52 0.48 0.49 0.46 0.40 0.38 0.39 0.38 0.37 0.39 0.43 0.46 0.44 0.45 0.50 0.48 0.44 0.43 0.43 0.45 0.50 0.53 0.52 0.50 0.52 0.54 0.56 0.61 0.66 0.64 0.59 0.60 0.60 0.56 0.54